This demonstration page uses our WeatherBlox Daily Observations layout. Learn more.

Left ArrowRight Arrow

47.50024, -111.30081

Hourly Observations for April 8, 2020

Temp ( °F °C ) Dew Point ( °F °C ) Humidity (%) Winds ( mph kmh ) Pressure ( in mb ) Visibility ( mi km ) Precip ( " mm )
12:12 am 00:12 Cloudy 29 -1.7 20 -6.7 69 69 NE 20 31 30.28 1025 10 16 0.00 0.00
12:21 am 00:21 Cloudy 29 -1.7 20 -6.7 69 69 NE 22 35 30.29 1026 10 16 0.00 0.00
12:53 am 00:53 Cloudy 28 -2.2 20 -6.7 72 72 NE 20 31 30.25 1025 10 16 0.00 0.00
1:05 am 01:05 Cloudy 28 -2.2 20 -6.7 72 72 NE 20 31 30.34 1027 10 16 0.00 0.00
1:53 am 01:53 Cloudy 28 -2.2 21 -6.1 75 75 NE 12 19 30.28 1026 10 16 0.00 0.00
2:35 am 02:35 Cloudy 27 -2.8 22 -5.6 81 81 NE 8 13 30.38 1029 10 16 0.00 0.00
2:43 am 02:43 Cloudy with Light Snow 27 -2.8 21 -6.1 78 78 ENE 7 11 30.38 1029 9 14 0.00 0.00
2:47 am 02:47 Cloudy with Light Snow 27 -3 21 -6 80 80 E 9 15 30.38 1029 9 14 0.00 0.00
2:53 am 02:53 Cloudy with Light Snow 27 -2.8 22 -5.6 81 81 ENE 8 13 30.29 1026 8 13 0.00 0.00
3:53 am 03:53 Cloudy 27 -2.8 22 -5.6 81 81 E 7 11 30.28 1025 10 16 0.00 0.00
4:21 am 04:21 Cloudy 27 -2.8 22 -5.6 81 81 E 7 11 30.38 1029 10 16 0.00 0.00
4:46 am 04:46 Cloudy 26 -3.3 22 -5.6 84 84 ESE 5 7 30.38 1029 10 16 0.00 0.00
4:53 am 04:53 Cloudy 26 -3.3 22 -5.6 84 84 ESE 3 6 30.29 1026 10 16 0.00 0.00
5:53 am 05:53 Cloudy 27 -2.8 21 -6.1 78 78 ENE 6 9 30.30 1026 10 16 0.00 0.00
6:53 am 06:53 Cloudy 27 -2.8 21 -6.1 78 78 NE 9 15 30.33 1027 10 16 0.00 0.00
7:19 am 07:19 Cloudy 27 -2.8 21 -6.1 78 78 NE 8 13 30.42 1030 10 16 0.00 0.00
7:53 am 07:53 Cloudy 28 -2.2 21 -6.1 75 75 ENE 7 11 30.36 1028 10 16 0.00 0.00
8:07 am 08:07 Cloudy 28 -2.2 21 -6.1 75 75 ENE 7 11 30.43 1030 10 16 0.00 0.00
8:53 am 08:53 Cloudy 29 -1.7 20 -6.7 69 69 E 5 7 30.40 1029 10 16 0.00 0.00
9:53 am 09:53 Cloudy 31 -0.6 20 -6.7 64 64 E 5 7 30.40 1029 10 16 0.00 0.00
10:53 am 10:53 Cloudy 33 0.6 19 -7.2 56 56 E 7 11 30.41 1030 10 16 0.00 0.00
11:53 am 11:53 Sunny 36 2.2 19 -7.2 50 50 ENE 3 6 30.40 1030 10 16 0.00 0.00
12:53 pm 12:53 Sunny 36 2.2 19 -7.2 50 50 VRB 3 6 30.39 1029 10 16 0.00 0.00
1:53 pm 13:53 Sunny 41 5 19 -7.2 41 41 undefined N/A 30.35 1028 10 16 0.00 0.00
2:53 pm 14:53 Sunny 42 5.6 20 -6.7 41 41 N 6 9 30.33 1027 10 16 0.00 0.00
3:53 pm 15:53 Sunny 44 6.7 20 -6.7 38 38 NE 9 15 30.29 1026 10 16 0.00 0.00
4:53 pm 16:53 Sunny 45 7.2 20 -6.7 37 37 VRB 7 11 30.27 1025 10 16 0.00 0.00
5:53 pm 17:53 Sunny 43 6.1 20 -6.7 40 40 ENE 9 15 30.28 1025 10 16 0.00 0.00
6:53 pm 18:53 Sunny 41 5 20 -6.7 43 43 ENE 12 19 30.28 1025 10 16 0.00 0.00
7:53 pm 19:53 Mostly Sunny 40 4.4 20 -6.7 45 45 E 7 11 30.28 1025 10 16 0.00 0.00
8:53 pm 20:53 Clear 38 3.3 21 -6.1 51 51 E 8 13 30.29 1026 10 16 0.00 0.00
9:53 pm 21:53 Mostly Cloudy 35 1.7 21 -6.1 57 57 E 7 11 30.31 1026 10 16 0.00 0.00
10:53 pm 22:53 Clear 32 0 21 -6.1 64 64 ENE 6 9 30.32 1027 10 16 0.00 0.00
11:53 pm 23:53 Clear 31 -0.6 20 -6.7 64 64 ENE 7 11 30.32 1027 10 16 0.00 0.00

Powered by AerisWeather